COSMOS 1275 DEB, 12672

Orbit data source: Space-Track

COSMOS 1275 DEB, 12672 is space debris in LEO originally from a launch on Thu, 04 Jun 1981 UTC launched from the Plesetsk Missile And Space Complex (PKMTR). Debris objects in space refer to the collection of defunct objects orbiting the Earth. Examples of debris include non-operational satellites, rocket bodies, and fragments generated from explosions, collisions, or faulty payload assembly.

Loading next visibility...
Identifier
12672, 1981-053AC
Orbit
LEO
Country
Flag of CISCIS
Related business
Manufacturer
Unknown
Mission
Spacecraft
Bus & Motor
Unknown
Mass
Unknown
Launch date (UTC)
1981-06-04 (45 years ago)
Launch vehicle
Unknown
Launch site
Plesetsk Missile And Space Complex (PKMTR)
Object type
Payload
Rocket body
Debris
Shape & HBR
Unknown shape, 0.3 m
Radar Cross Section
Medium (>0.1 m² and <1 m²)

Expand to show TLE details & history
Last TLE update: 8 hours ago

TLE from 8 hours ago
0 COSMOS 1275 DEB
1 12672U 81053AC  26119.63878861  .00000476  00000-0  41304-3 0  9993
2 12672  82.9450 206.7248 0026381  40.9661  73.1822 13.84048753251692
Epoch: 2026-04-29T15:19Z
TLE epoch observation values (Epoch: 2026-04-29T15:19:51.335Z)
Latitude
64.71079°
Longitude
-75.94024°
Altitude
955.18 km
Speed
7.383 km/s
True Right ascension
00h 46m 28s
True Declination
64° 34' 53"
Sunlit
Object was in daylight at epoch
Visualization orbit readout
Latitude
Unknown
Longitude
Unknown
Altitude
Unknown
Speed
Unknown
Apparent Right ascension
Unknown
Apparent Declination
Unknown
Sunlit
N/A
Visualization observer readout
Local Sidereal Time
06:45:47
Azimuth
Unknown
Elevation
Unknown
Doppler factor
Unknown
Orbital elements
Apogee altitude
966.021 km
Perigee altitude
927.374 km
Semi-major axis
7,324.835 km
Eccentricity
0.00264
Inclination
82.945°
RAAN
206.7248°
Arg. of periapsis
40.9661°
True anomaly
73.47185°
Mean anomaly
73.1822°
Eccentric anomaly
73.327°
Mean motion
3.46215 °/min
Orbital period
103.98 mins
BSTAR
0.00041304
Loading maneuver chart data...
Computing Atmospheric mass density...
Loading historical data...
Loading historical data...
Loading historical data...
Loading historical data...
Loading historical data...
Loading historical data...
Loading historical data...

Documentation

Showing up to 5 results
|